Find Starlink 5259

NORAD ID: 54209 Int'l Des: 2022-141 Owner: SPXS Country: US Constellation: starlink operational
LEOCIRCULAR

当前视图

正在加载3D地球...

关于 Starlink 5259

正在加载描述...

即将过境

Passes for default location (London). Set your location on the main map for personalized predictions.

高度历史

Loading altitude history...

两行轨道根数

1 54209U 22141BE 26150.89971195 .00001502 00000-0 11241-3 0 9993
2 54209 53.1955 334.7166 0001046 84.5708 275.5403 15.08840369198551
Epoch: May 30, 2026 • Age: 12 hours

当前状态

高度 556.5 km
速度 7.58 km/s
星下点 -47.09°S, 120.01°W
发射日期 Oct 28, 2022
运行时间 3.5 years
类型 internet

技术详情

分类 Payload
质量 305.00 kg
干质量 290.00 kg
总质量 305.00 kg
长度 0.20 m
直径 2.80 m
跨度 9.00 m
形状 Box + pan
制造商 SPXS
平台类型 Starlink
阶段状态 In Orbit
所有者/国家 SPXS/US

Most Searched